| time (UTC) | temp F | wind direction | speed MPH | gust MPH | rain 1hr in | rain 24hr in | rain mn in | humidity % | barometer mb |
| 20260510130023 | 53 | 272 | 0.0 | 2.0 | 0.00 | 0.01 | 0.00 | 97 | 1021.9 |
| 20260510124530 | 53 | 345 | 0.0 | 3.0 | 0.00 | 0.01 | 0.00 | 97 | 1021.7 |
| 20260510123018 | 52 | 28 | 0.0 | 2.0 | 0.00 | 0.01 | 0.00 | 96 | 1021.4 |
| 20260510121517 | 51 | 355 | 0.0 | 2.0 | 0.00 | 0.01 | 0.00 | 97 | 1021.4 |
| 20260510120012 | 51 | 291 | 0.0 | 2.0 | 0.00 | 0.01 | 0.00 | 96 | 1021.2 |
| 20260510114510 | 50 | 5 | 0.0 | 2.0 | 0.00 | 0.01 | 0.00 | 97 | 1021.0 |
| 20260510113010 | 50 | 134 | 0.0 | 0.0 | 0.00 | 0.01 | 0.00 | 97 | 1020.8 |
| 20260510111506 | 49 | 61 | 0.0 | 0.0 | 0.00 | 0.01 | 0.00 | 97 | 1021.0 |
| 20260510110002 | 49 | 127 | 0.0 | 2.0 | 0.00 | 0.01 | 0.00 | 97 | 1021.0 |
| 20260510104601 | 48 | 127 | 0.0 | 2.0 | 0.00 | 0.01 | 0.00 | 96 | 1020.7 |
| 20260510103057 | 48 | 127 | 0.0 | 2.0 | 0.00 | 0.01 | 0.00 | 96 | 1020.4 |
| 20260510101555 | 48 | 127 | 0.0 | 2.0 | 0.00 | 0.01 | 0.00 | 96 | 1020.3 |
| 20260510100109 | 48 | 127 | 0.0 | 2.0 | 0.00 | 0.01 | 0.00 | 96 | 1020.4 |
| 20260510094600 | 48 | 140 | 0.0 | 2.0 | 0.00 | 0.01 | 0.00 | 96 | 1020.3 |
| 20260510093057 | 48 | 136 | 0.0 | 2.0 | 0.00 | 0.01 | 0.00 | 96 | 1020.5 |
| 20260510091549 | 48 | 135 | 0.0 | 0.0 | 0.00 | 0.01 | 0.00 | 96 | 1020.5 |
| 20260510090056 | 48 | 134 | 0.0 | 1.0 | 0.00 | 0.01 | 0.00 | 96 | 1020.6 |
| 20260510084608 | 48 | 135 | 0.0 | 2.0 | 0.00 | 0.01 | 0.00 | 96 | 1020.8 |
| 20260510083049 | 48 | 155 | 0.0 | 2.0 | 0.00 | 0.01 | 0.00 | 96 | 1020.9 |
| 20260510081553 | 48 | 279 | 0.0 | 2.0 | 0.00 | 0.01 | 0.00 | 96 | 1021.1 |
| 20260510080044 | 48 | 334 | 0.0 | 3.0 | 0.00 | 0.01 | 0.00 | 96 | 1020.9 |
| 20260510074543 | 48 | 340 | 0.0 | 3.0 | 0.00 | 0.01 | 0.00 | 96 | 1020.6 |
| 20260510073044 | 48 | 274 | 0.0 | 2.0 | 0.00 | 0.01 | 0.00 | 96 | 1020.0 |
| 20260510071544 | 48 | 238 | 0.0 | 2.0 | 0.00 | 0.01 | 0.00 | 96 | 1020.0 |
| 20260510070045 | 48 | 9 | 0.0 | 2.0 | 0.00 | 0.01 | 0.00 | 96 | 1020.1 |
| 20260510064537 | 48 | 9 | 0.0 | 2.0 | 0.00 | 0.01 | 0.00 | 96 | 1020.1 |
| 20260510063035 | 47 | 99 | 0.0 | 2.0 | 0.00 | 0.01 | 0.00 | 96 | 1020.3 |
| 20260510061531 | 47 | 99 | 0.0 | 2.0 | 0.00 | 0.01 | 0.00 | 96 | 1020.4 |
| 20260510060029 | 46 | 137 | 0.0 | 2.0 | 0.00 | 0.01 | 0.00 | 95 | 1020.1 |
| 20260510054530 | 46 | 137 | 0.0 | 1.0 | 0.00 | 0.01 | 0.00 | 95 | 1020.0 |
| 20260510053028 | 46 | 137 | 0.0 | 1.0 | 0.00 | 0.01 | 0.00 | 95 | 1020.0 |
| 20260510051528 | 46 | 137 | 0.0 | 1.0 | 0.00 | 0.01 | 0.00 | 94 | 1020.1 |
| 20260510050023 | 47 | 137 | 0.0 | 0.0 | 0.00 | 0.01 | 0.00 | 94 | 1020.1 |
| 20260510044529 | 47 | 137 | 0.0 | 1.0 | 0.00 | 0.01 | 0.00 | 94 | 1020.1 |
| 20260510043020 | 48 | 137 | 0.0 | 2.0 | 0.00 | 0.01 | 0.00 | 94 | 1020.3 |
| 20260510041518 | 48 | 146 | 0.0 | 2.0 | 0.00 | 0.01 | 0.00 | 95 | 1020.4 |
| 20260510040016 | 49 | 254 | 0.0 | 1.0 | 0.00 | 0.01 | 0.00 | 95 | 1020.3 |
| 20260510034515 | 49 | 112 | 0.0 | 0.0 | 0.00 | 0.01 | 0.01 | 95 | 1020.2 |
| 20260510033014 | 49 | 112 | 0.0 | 2.0 | 0.00 | 0.01 | 0.01 | 95 | 1020.0 |
| 20260510031513 | 49 | 112 | 0.0 | 0.0 | 0.00 | 0.01 | 0.01 | 95 | 1020.0 |
| 20260510030012 | 49 | 112 | 0.0 | 0.0 | 0.00 | 0.01 | 0.01 | 94 | 1019.8 |
| 20260510024511 | 49 | 112 | 0.0 | 0.0 | 0.00 | 0.01 | 0.01 | 94 | 1019.9 |
| 20260510023011 | 49 | 112 | 0.0 | 2.0 | 0.00 | 0.01 | 0.01 | 95 | 1019.8 |
| 20260510021510 | 49 | 157 | 0.0 | 0.0 | 0.00 | 0.01 | 0.01 | 94 | 1020.0 |
| 20260510020010 | 49 | 157 | 0.0 | 2.0 | 0.00 | 0.01 | 0.01 | 94 | 1020.0 |
| 20260510014509 | 48 | 157 | 0.0 | 0.0 | 0.00 | 0.01 | 0.01 | 93 | 1019.9 |
| 20260510013008 | 49 | 157 | 0.0 | 2.0 | 0.00 | 0.01 | 0.01 | 93 | 1019.8 |
| 20260510011516 | 49 | 157 | 0.0 | 0.0 | 0.00 | 0.01 | 0.01 | 92 | 1019.8 |
| 20260510010006 | 50 | 157 | 0.0 | 2.0 | 0.00 | 0.01 | 0.01 | 92 | 1019.7 |
| 20260510004509 | 51 | 186 | 0.0 | 1.0 | 0.00 | 0.01 | 0.01 | 92 | 1019.3 |
| 20260510003006 | 51 | 137 | 0.0 | 2.0 | 0.00 | 0.01 | 0.01 | 93 | 1019.1 |
| 20260510001505 | 51 | 128 | 0.0 | 2.0 | 0.00 | 0.01 | 0.01 | 92 | 1019.1 |
| 20260510000008 | 52 | 153 | 0.0 | 3.0 | 0.00 | 0.01 | 0.01 | 92 | 1019.3 |
| 20260509234504 | 52 | 128 | 0.0 | 2.0 | 0.00 | 0.01 | 0.01 | 92 | 1019.1 |
| 20260509233004 | 52 | 207 | 0.0 | 3.0 | 0.00 | 0.01 | 0.01 | 91 | 1018.9 |
| 20260509231504 | 52 | 127 | 0.0 | 2.0 | 0.00 | 0.01 | 0.01 | 91 | 1018.9 |
| 20260509230002 | 53 | 131 | 0.0 | 4.0 | 0.00 | 0.01 | 0.01 | 89 | 1018.9 |
| 20260509224502 | 54 | 254 | 0.0 | 3.0 | 0.00 | 0.01 | 0.01 | 90 | 1018.9 |
| 20260509223001 | 54 | 153 | 0.0 | 3.0 | 0.00 | 0.01 | 0.01 | 90 | 1018.9 |
| 20260509221603 | 55 | 141 | 0.0 | 2.0 | 0.00 | 0.01 | 0.01 | 89 | 1019.1 |
| 20260509220101 | 54 | 138 | 0.0 | 2.0 | 0.00 | 0.01 | 0.01 | 89 | 1019.1 |
| 20260509214605 | 54 | 117 | 0.0 | 2.0 | 0.00 | 0.01 | 0.01 | 90 | 1019.2 |
| 20260509213058 | 53 | 210 | 0.0 | 2.0 | 0.00 | 0.01 | 0.01 | 92 | 1019.0 |
| 20260509211601 | 52 | 222 | 0.0 | 2.0 | 0.00 | 0.01 | 0.01 | 92 | 1019.1 |
| 20260509210107 | 52 | 223 | 0.0 | 2.0 | 0.00 | 0.01 | 0.01 | 92 | 1019.2 |
| 20260509204600 | 52 | 313 | 0.0 | 2.0 | 0.00 | 0.01 | 0.01 | 92 | 1019.2 |
| 20260509203058 | 52 | 46 | 0.0 | 2.0 | 0.00 | 0.01 | 0.01 | 92 | 1019.1 |
| 20260509201603 | 52 | 39 | 1.0 | 3.0 | 0.00 | 0.01 | 0.01 | 92 | 1019.2 |
| 20260509200106 | 52 | 328 | 0.0 | 3.0 | 0.00 | 0.01 | 0.01 | 92 | 1019.5 |
| 20260509194551 | 52 | 340 | 1.0 | 5.0 | 0.00 | 0.01 | 0.01 | 91 | 1019.9 |
| 20260509193051 | 52 | 300 | 0.0 | 3.0 | 0.00 | 0.01 | 0.01 | 91 | 1019.9 |
| 20260509191550 | 53 | 280 | 0.0 | 3.0 | 0.00 | 0.01 | 0.01 | 91 | 1020.0 |
| 20260509190050 | 53 | 291 | 0.0 | 3.0 | 0.00 | 0.01 | 0.01 | 90 | 1020.1 |
| 20260509184558 | 53 | 263 | 0.0 | 3.0 | 0.00 | 0.01 | 0.01 | 90 | 1020.1 |
| 20260509183048 | 53 | 331 | 0.0 | 2.0 | 0.00 | 0.01 | 0.01 | 89 | 1019.8 |
| 20260509181552 | 54 | 62 | 0.0 | 3.0 | 0.00 | 0.01 | 0.01 | 87 | 1020.2 |
| 20260509180045 | 55 | 252 | 1.0 | 5.0 | 0.00 | 0.01 | 0.01 | 85 | 1020.6 |
| 20260509174544 | 56 | 277 | 1.0 | 6.0 | 0.00 | 0.01 | 0.01 | 81 | 1020.7 |
| 20260509173056 | 57 | 259 | 1.0 | 4.0 | 0.00 | 0.01 | 0.01 | 78 | 1020.5 |
| 20260509171543 | 58 | 291 | 2.0 | 6.0 | 0.00 | 0.01 | 0.01 | 75 | 1020.3 |
| 20260509170044 | 58 | 112 | 1.0 | 7.0 | 0.00 | 0.01 | 0.01 | 73 | 1020.2 |
| 20260509164543 | 59 | 188 | 0.0 | 5.0 | 0.00 | 0.01 | 0.01 | 73 | 1020.2 |
| 20260509163041 | 59 | 265 | 0.0 | 3.0 | 0.00 | 0.01 | 0.01 | 73 | 1020.2 |
| 20260509161542 | 59 | 264 | 0.0 | 3.0 | 0.00 | 0.01 | 0.01 | 74 | 1020.4 |
| 20260509160044 | 59 | 267 | 0.0 | 3.0 | 0.00 | 0.01 | 0.01 | 74 | 1020.3 |
| 20260509154540 | 58 | 207 | 2.0 | 5.0 | 0.00 | 0.01 | 0.01 | 74 | 1020.8 |
| 20260509153043 | 58 | 57 | 0.0 | 5.0 | 0.00 | 0.01 | 0.01 | 78 | 1020.7 |
| 20260509151533 | 57 | 284 | 2.0 | 5.0 | 0.00 | 0.01 | 0.01 | 78 | 1020.8 |
| 20260509150038 | 57 | 146 | 2.0 | 6.0 | 0.00 | 0.01 | 0.01 | 80 | 1021.0 |
| 20260509144534 | 56 | 281 | 2.0 | 7.0 | 0.01 | 0.01 | 0.01 | 81 | 1021.0 |
| 20260509143028 | 56 | 270 | 1.0 | 7.0 | 0.01 | 0.01 | 0.01 | 80 | 1020.8 |
| 20260509141530 | 56 | 189 | 1.0 | 3.0 | 0.01 | 0.01 | 0.01 | 80 | 1020.5 |
| 20260509140023 | 55 | 222 | 1.0 | 8.0 | 0.01 | 0.01 | 0.01 | 80 | 1020.6 |
| 20260509134538 | 54 | 118 | 0.0 | 3.0 | 0.00 | 0.00 | 0.00 | 83 | 1020.6 |
| 20260509133021 | 53 | 315 | 1.0 | 3.0 | 0.00 | 0.00 | 0.00 | 83 | 1020.8 |
| 20260509131515 | 53 | 145 | 0.0 | 2.0 | 0.00 | 0.00 | 0.00 | 81 | 1020.8 |